When you browse on this site, cookies collect data to enhance your experience and personalize the content and advertising you see.
Visit our Privacy Policy to learn more. By continuing to use the site, you agree to this use of cookies and data.
  • în România
  • Lista ţărilor
  • Pe 7 zile
  • Temperatura apei
  • Hartă satelitară
  • Meteo pe hartă
  • Widget-uri
  • user-avatar
    Intrare

    Meteo pe oră la Ashtarak

    Astăzi, 24 Iunie, Luni

    Timp Temperatura Precipitaţii Vânt Presiune Umiditate
    00:00 +21°C° 0.1 mm 2 m/s 659 mmHg 60%
    01:00 +21°C° 0 mm 2 m/s 659 mmHg 62%
    02:00 +21°C° 0 mm 2 m/s 659 mmHg 63%
    03:00 +20°C° 0 mm 2 m/s 659 mmHg 64%
    04:00 +21°C° 0 mm 2 m/s 659 mmHg 65%
    05:00 +21°C° 0 mm 2 m/s 659 mmHg 65%
    06:00 +23°C° 0 mm 2 m/s 659 mmHg 65%
    07:00 +25°C° 0.1 mm 1 m/s 660 mmHg 60%
    08:00 +27°C° 0.1 mm 1 m/s 660 mmHg 54%
    09:00 +28°C° 0 mm 1 m/s 660 mmHg 49%
    10:00 +30°C° 0.2 mm 1 m/s 660 mmHg 45%
    11:00 +31°C° 0.2 mm 2 m/s 660 mmHg 42%
    12:00 +32°C° 0.2 mm 2 m/s 661 mmHg 39%
    13:00 +32°C° 0.1 mm 2 m/s 660 mmHg 37%
    14:00 +34°C° 0.1 mm 2 m/s 660 mmHg 35%
    15:00 +34°C° 0.1 mm 2 m/s 660 mmHg 33%
    16:00 +32°C° 0.2 mm 2 m/s 660 mmHg 38%
    17:00 +31°C° 0.2 mm 2 m/s 660 mmHg 42%
    18:00 +31°C° 0.2 mm 3 m/s 659 mmHg 47%
    19:00 +28°C° 0.2 mm 3 m/s 659 mmHg 52%
    20:00 +26°C° 0.2 mm 3 m/s 659 mmHg 56%
    21:00 +23°C° 0.2 mm 4 m/s 659 mmHg 61%
    22:00 +22°C° 0 mm 3 m/s 659 mmHg 61%
    23:00 +22°C° 0 mm 3 m/s 659 mmHg 62%

    Mâine, 25 Iunie, Marţi

    Timp Temperatura Precipitaţii Vânt Presiune Umiditate
    00:00 +21°C° 0 mm 2 m/s 659 mmHg 62%
    01:00 +21°C° 0 mm 2 m/s 659 mmHg 62%
    02:00 +21°C° 0 mm 2 m/s 659 mmHg 63%
    03:00 +20°C° 0 mm 2 m/s 659 mmHg 63%
    04:00 +21°C° 0 mm 2 m/s 659 mmHg 62%
    05:00 +23°C° 0 mm 2 m/s 659 mmHg 62%
    06:00 +23°C° 0 mm 1 m/s 660 mmHg 61%
    07:00 +25°C° 0 mm 1 m/s 660 mmHg 56%
    08:00 +27°C° 0 mm 1 m/s 660 mmHg 51%
    09:00 +29°C° 0 mm 1 m/s 661 mmHg 47%
    10:00 +30°C° 0.1 mm 1 m/s 661 mmHg 44%
    11:00 +31°C° 0.1 mm 1 m/s 661 mmHg 41%
    12:00 +32°C° 0.1 mm 2 m/s 661 mmHg 38%
    13:00 +34°C° 0.2 mm 2 m/s 661 mmHg 37%
    14:00 +34°C° 0.2 mm 2 m/s 661 mmHg 36%
    15:00 +34°C° 0.2 mm 2 m/s 661 mmHg 36%
    16:00 +34°C° 0.1 mm 2 m/s 660 mmHg 39%
    17:00 +33°C° 0.1 mm 3 m/s 660 mmHg 42%
    18:00 +32°C° 0.1 mm 4 m/s 660 mmHg 45%
    19:00 +29°C° 0.1 mm 4 m/s 660 mmHg 48%
    20:00 +27°C° 0.1 mm 4 m/s 660 mmHg 51%
    21:00 +25°C° 0.1 mm 3 m/s 660 mmHg 55%
    22:00 +24°C° 0.1 mm 3 m/s 660 mmHg 56%
    23:00 +24°C° 0.1 mm 2 m/s 660 mmHg 58%

    Poimâine, 26 Iunie, Miercuri

    Timp Temperatura Precipitaţii Vânt Presiune Umiditate
    00:00 +23°C° 0.1 mm 2 m/s 660 mmHg 59%
    01:00 +23°C° 0 mm 2 m/s 660 mmHg 60%
    02:00 +21°C° 0 mm 2 m/s 660 mmHg 60%
    03:00 +21°C° 0 mm 2 m/s 659 mmHg 61%
    04:00 +21°C° 0 mm 2 m/s 660 mmHg 60%
    05:00 +23°C° 0 mm 2 m/s 660 mmHg 59%
    06:00 +24°C° 0 mm 1 m/s 660 mmHg 59%
    07:00 +26°C° 0 mm 1 m/s 661 mmHg 54%
    08:00 +27°C° 0 mm 1 m/s 661 mmHg 49%
    09:00 +29°C° 0 mm 1 m/s 661 mmHg 44%
    10:00 +30°C° 0.1 mm 1 m/s 661 mmHg 41%
    11:00 +31°C° 0.1 mm 1 m/s 661 mmHg 38%
    12:00 +33°C° 0.1 mm 1 m/s 661 mmHg 35%
    13:00 +33°C° 0.1 mm 1 m/s 661 mmHg 34%
    14:00 +33°C° 0.1 mm 1 m/s 661 mmHg 33%
    15:00 +35°C° 0.1 mm 2 m/s 661 mmHg 32%
    16:00 +34°C° 0.1 mm 2 m/s 660 mmHg 36%
    17:00 +31°C° 0.1 mm 3 m/s 660 mmHg 41%
    18:00 +30°C° 0.1 mm 4 m/s 659 mmHg 46%
    19:00 +28°C° 0.2 mm 3 m/s 659 mmHg 53%
    20:00 +25°C° 0.2 mm 2 m/s 659 mmHg 59%
    21:00 +23°C° 0.2 mm 1 m/s 659 mmHg 66%
    22:00 +23°C° 0.1 mm 1 m/s 658 mmHg 65%
    23:00 +23°C° 0.1 mm 1 m/s 658 mmHg 64%

    27 Iunie, Joi

    Timp Temperatura Precipitaţii Vânt Presiune Umiditate
    00:00 +23°C° 0.1 mm 1 m/s 658 mmHg 62%
    01:00 +22°C° 0.3 mm 1 m/s 658 mmHg 65%
    02:00 +21°C° 0.3 mm 1 m/s 658 mmHg 67%
    03:00 +21°C° 0.3 mm 1 m/s 657 mmHg 69%
    04:00 +21°C° 0.3 mm 1 m/s 658 mmHg 68%
    05:00 +22°C° 0.3 mm 1 m/s 658 mmHg 67%
    06:00 +23°C° 0.3 mm 1 m/s 658 mmHg 66%
    07:00 +24°C° 0.1 mm 1 m/s 658 mmHg 61%
    08:00 +26°C° 0.1 mm 1 m/s 658 mmHg 55%
    09:00 +27°C° 0.1 mm 1 m/s 658 mmHg 50%
    10:00 +29°C° 0.4 mm 1 m/s 658 mmHg 47%
    11:00 +30°C° 0.4 mm 1 m/s 658 mmHg 43%
    12:00 +31°C° 0.4 mm 1 m/s 658 mmHg 39%
    13:00 +31°C° 0.4 mm 1 m/s 657 mmHg 38%
    14:00 +32°C° 0.4 mm 1 m/s 657 mmHg 36%
    15:00 +32°C° 0.4 mm 1 m/s 657 mmHg 34%
    16:00 +30°C° 0.7 mm 2 m/s 656 mmHg 45%
    17:00 +27°C° 0.7 mm 3 m/s 655 mmHg 55%
    18:00 +23°C° 0.7 mm 4 m/s 655 mmHg 65%
    19:00 +22°C° 0.5 mm 3 m/s 655 mmHg 68%
    20:00 +21°C° 0.5 mm 3 m/s 655 mmHg 70%
    21:00 +20°C° 0.5 mm 2 m/s 655 mmHg 72%
    22:00 +20°C° 0.1 mm 2 m/s 655 mmHg 72%
    23:00 +20°C° 0.1 mm 2 m/s 655 mmHg 72%

    28 Iunie, Vineri

    Timp Temperatura Precipitaţii Vânt Presiune Umiditate
    00:00 +21°C° 0.1 mm 1 m/s 655 mmHg 71%
    01:00 +21°C° 0 mm 1 m/s 655 mmHg 71%
    02:00 +20°C° 0 mm 1 m/s 654 mmHg 71%
    03:00 +20°C° 0 mm 1 m/s 654 mmHg 71%
    04:00 +20°C° 0.3 mm 1 m/s 654 mmHg 71%
    05:00 +21°C° 0.3 mm 1 m/s 654 mmHg 71%
    06:00 +21°C° 0.3 mm 1 m/s 654 mmHg 71%
    07:00 +22°C° 0.2 mm 1 m/s 654 mmHg 66%
    08:00 +24°C° 0.2 mm 1 m/s 654 mmHg 62%
    09:00 +25°C° 0.2 mm 1 m/s 654 mmHg 57%
    10:00 +26°C° 0.7 mm 1 m/s 654 mmHg 53%
    11:00 +28°C° 0.7 mm 1 m/s 654 mmHg 49%
    12:00 +29°C° 0.7 mm 2 m/s 654 mmHg 45%
    13:00 +29°C° 0.6 mm 1 m/s 654 mmHg 43%
    14:00 +30°C° 0.6 mm 1 m/s 654 mmHg 41%
    15:00 +31°C° 0.6 mm 1 m/s 653 mmHg 39%
    16:00 +30°C° 0.5 mm 2 m/s 653 mmHg 42%
    17:00 +29°C° 0.5 mm 2 m/s 653 mmHg 45%
    18:00 +29°C° 0.5 mm 3 m/s 653 mmHg 48%
    19:00 +27°C° 0.9 mm 2 m/s 653 mmHg 55%
    20:00 +24°C° 0.9 mm 2 m/s 653 mmHg 63%
    21:00 +21°C° 0.9 mm 2 m/s 653 mmHg 71%
    22:00 +21°C° 0.8 mm 2 m/s 653 mmHg 73%
    23:00 +20°C° 0.8 mm 2 m/s 653 mmHg 75%

    29 Iunie, Sâmbătă

    Timp Temperatura Precipitaţii Vânt Presiune Umiditate
    00:00 +21°C° 0.8 mm 1 m/s 653 mmHg 76%
    01:00 +21°C° 0.2 mm 1 m/s 653 mmHg 77%
    02:00 +21°C° 0.2 mm 1 m/s 652 mmHg 77%
    03:00 +20°C° 0.2 mm 1 m/s 652 mmHg 77%
    04:00 +21°C° 0.1 mm 1 m/s 652 mmHg 76%
    05:00 +21°C° 0.1 mm 1 m/s 652 mmHg 74%
    06:00 +21°C° 0.1 mm 1 m/s 652 mmHg 72%
    07:00 +22°C° 0.2 mm 1 m/s 652 mmHg 69%
    08:00 +23°C° 0.2 mm 1 m/s 652 mmHg 65%
    09:00 +24°C° 0.2 mm 2 m/s 652 mmHg 62%
    10:00 +25°C° 0.6 mm 2 m/s 653 mmHg 58%
    11:00 +27°C° 0.6 mm 2 m/s 653 mmHg 53%
    12:00 +28°C° 0.6 mm 2 m/s 653 mmHg 49%
    13:00 +28°C° 0.5 mm 2 m/s 653 mmHg 46%
    14:00 +29°C° 0.5 mm 2 m/s 653 mmHg 44%
    15:00 +30°C° 0.5 mm 2 m/s 653 mmHg 41%
    16:00 +29°C° 0.4 mm 2 m/s 653 mmHg 44%
    17:00 +29°C° 0.4 mm 2 m/s 653 mmHg 46%
    18:00 +28°C° 0.4 mm 2 m/s 653 mmHg 48%
    19:00 +25°C° 1.8 mm 2 m/s 653 mmHg 61%
    20:00 +23°C° 1.8 mm 2 m/s 653 mmHg 74%
    21:00 +19°C° 1.8 mm 2 m/s 653 mmHg 87%
    22:00 +19°C° 1.1 mm 2 m/s 653 mmHg 85%
    23:00 +19°C° 1.1 mm 2 m/s 653 mmHg 83%
    Arată mai mult